Time,TemperatureF,DewpointF,PressureIn,WindDirection,WindDirectionDegrees,WindSpeedMPH,WindSpeedGustMPH,Humidity,HourlyPrecipIn,Conditions,Clouds,dailyrainin,SoftwareType,DateUTC
2014-01-25 00:09:00,23.4,22.0,29.65,SW,228,10.0,19.0,92,0.00,,,0.00,weatherlink.com 1.10,2014-01-25 06:09:00,
2014-01-25 00:24:00,23.8,22.0,29.63,SSW,207,13.0,19.0,92,0.00,,,0.00,weatherlink.com 1.10,2014-01-25 06:24:00,
2014-01-25 00:39:00,24.1,22.0,29.62,SW,232,7.0,17.0,92,0.00,,,0.00,weatherlink.com 1.10,2014-01-25 06:39:00,
2014-01-25 00:54:00,24.5,23.0,29.61,SW,216,8.0,16.0,93,0.00,,,0.00,weatherlink.com 1.10,2014-01-25 06:54:00,
2014-01-25 01:10:00,25.1,23.0,29.61,SSW,207,8.0,17.0,93,0.00,,,0.00,weatherlink.com 1.10,2014-01-25 07:10:00,
2014-01-25 01:25:00,25.3,24.0,29.60,SW,218,5.0,14.0,93,0.00,,,0.00,weatherlink.com 1.10,2014-01-25 07:25:00,
2014-01-25 01:40:00,25.7,24.0,29.59,SW,224,4.0,16.0,94,0.00,,,0.00,weatherlink.com 1.10,2014-01-25 07:40:00,
2014-01-25 01:55:00,26.1,25.0,29.58,SW,229,8.0,14.0,94,0.00,,,0.00,weatherlink.com 1.10,2014-01-25 07:55:00,
2014-01-25 02:10:00,26.5,25.0,29.58,SSW,208,7.0,11.0,94,0.00,,,0.00,weatherlink.com 1.10,2014-01-25 08:10:00,
2014-01-25 02:25:00,27.5,26.0,29.57,WSW,250,9.0,14.0,95,0.00,,,0.00,weatherlink.com 1.10,2014-01-25 08:25:00,
2014-01-25 02:40:00,28.4,27.0,29.56,WSW,239,13.0,18.0,95,0.00,,,0.00,weatherlink.com 1.10,2014-01-25 08:40:00,
2014-01-25 02:55:00,28.6,27.0,29.55,WSW,251,7.0,17.0,95,0.00,,,0.00,weatherlink.com 1.10,2014-01-25 08:55:00,
2014-01-25 03:10:00,28.6,27.0,29.55,WSW,238,5.0,22.0,95,0.00,,,0.00,weatherlink.com 1.10,2014-01-25 09:10:00,
2014-01-25 03:25:00,28.5,27.0,29.54,WSW,239,8.0,15.0,95,0.00,,,0.00,weatherlink.com 1.10,2014-01-25 09:25:00,
2014-01-25 03:40:00,28.6,27.0,29.54,WSW,247,7.0,16.0,95,0.00,,,0.00,weatherlink.com 1.10,2014-01-25 09:40:00,
2014-01-25 03:55:00,28.7,28.0,29.53,WSW,255,3.0,17.0,95,0.00,,,0.00,weatherlink.com 1.10,2014-01-25 09:55:00,
2014-01-25 04:10:00,28.9,28.0,29.53,West,265,10.0,16.0,95,0.00,,,0.00,weatherlink.com 1.10,2014-01-25 10:10:00,
2014-01-25 04:25:00,29.2,28.0,29.53,West,272,7.0,15.0,95,0.00,,,0.00,weatherlink.com 1.10,2014-01-25 10:25:00,
2014-01-25 04:40:00,29.5,28.0,29.53,WNW,289,3.0,11.0,95,0.00,,,0.00,weatherlink.com 1.10,2014-01-25 10:40:00,
2014-01-25 04:55:00,30.2,29.0,29.52,West,281,8.0,13.0,96,0.00,,,0.00,weatherlink.com 1.10,2014-01-25 10:55:00,
2014-01-25 05:10:00,31.0,30.0,29.53,NW,310,10.0,13.0,96,0.00,,,0.00,weatherlink.com 1.10,2014-01-25 11:10:00,
2014-01-25 05:25:00,31.3,30.0,29.53,NW,310,10.0,19.0,96,0.00,,,0.00,weatherlink.com 1.10,2014-01-25 11:25:00,
2014-01-25 05:40:00,30.8,30.0,29.54,NW,315,8.0,17.0,95,0.00,,,0.00,weatherlink.com 1.10,2014-01-25 11:40:00,
2014-01-25 05:55:00,30.6,29.0,29.54,NNW,333,8.0,15.0,95,0.00,,,0.00,weatherlink.com 1.10,2014-01-25 11:55:00,
2014-01-25 06:10:00,30.4,29.0,29.55,WNW,303,5.0,11.0,95,0.00,,,0.00,weatherlink.com 1.10,2014-01-25 12:10:00,
2014-01-25 06:25:00,30.2,29.0,29.55,WNW,297,4.0,11.0,94,0.00,,,0.00,weatherlink.com 1.10,2014-01-25 12:25:00,
2014-01-25 06:40:00,29.8,28.0,29.55,NNW,331,11.0,16.0,91,0.00,,,0.00,weatherlink.com 1.10,2014-01-25 12:40:00,
2014-01-25 06:55:00,29.4,27.0,29.56,NW,310,6.0,12.0,89,0.00,,,0.00,weatherlink.com 1.10,2014-01-25 12:55:00,
2014-01-25 07:10:00,29.0,26.0,29.56,NW,315,10.0,14.0,87,0.00,,,0.00,weatherlink.com 1.10,2014-01-25 13:10:00,
2014-01-25 07:25:00,29.1,25.0,29.57,NNW,328,13.0,18.0,84,0.00,,,0.00,weatherlink.com 1.10,2014-01-25 13:25:00,
2014-01-25 07:40:00,29.2,24.0,29.57,NNW,341,12.0,19.0,80,0.00,,,0.00,weatherlink.com 1.10,2014-01-25 13:40:00,
2014-01-25 07:55:00,29.0,22.0,29.58,NNW,343,16.0,25.0,75,0.00,,,0.00,weatherlink.com 1.10,2014-01-25 13:55:00,
2014-01-25 08:10:00,29.0,21.0,29.58,NNW,336,16.0,25.0,71,0.00,,,0.00,weatherlink.com 1.10,2014-01-25 14:10:00,
2014-01-25 08:25:00,28.9,20.0,29.59,NNW,329,9.0,25.0,70,0.00,,,0.00,weatherlink.com 1.10,2014-01-25 14:25:00,
2014-01-25 08:40:00,28.2,18.0,29.60,NNW,332,17.0,24.0,67,0.00,,,0.00,weatherlink.com 1.10,2014-01-25 14:40:00,
2014-01-25 08:55:00,26.5,14.0,29.61,North,353,22.0,30.0,59,0.00,,,0.00,weatherlink.com 1.10,2014-01-25 14:55:00,
2014-01-25 09:11:00,26.0,12.0,29.62,North,360,12.0,29.0,55,0.00,,,0.00,weatherlink.com 1.10,2014-01-25 15:11:00,
2014-01-25 09:26:00,25.2,10.0,29.63,NNW,338,20.0,32.0,52,0.00,,,0.00,weatherlink.com 1.10,2014-01-25 15:26:00,
2014-01-25 09:41:00,24.1,10.0,29.64,NNW,347,14.0,29.0,54,0.00,,,0.00,weatherlink.com 1.10,2014-01-25 15:41:00,
2014-01-25 09:56:00,23.3,11.0,29.66,NNW,342,15.0,25.0,60,0.00,,,0.00,weatherlink.com 1.10,2014-01-25 15:56:00,
2014-01-25 10:11:00,22.9,10.0,29.67,North,353,23.0,29.0,57,0.00,,,0.00,weatherlink.com 1.10,2014-01-25 16:11:00,
2014-01-25 10:26:00,22.6,10.0,29.68,NNW,347,36.0,36.0,58,0.00,,,0.00,weatherlink.com 1.10,2014-01-25 16:26:00,
2014-01-25 10:41:00,22.8,10.0,29.68,NNW,345,23.0,32.0,58,0.00,,,0.00,weatherlink.com 1.10,2014-01-25 16:41:00,
2014-01-25 10:56:00,23.0,10.0,29.69,NNW,339,11.0,32.0,57,0.00,,,0.00,weatherlink.com 1.10,2014-01-25 16:56:00,
2014-01-25 11:11:00,22.2,8.0,29.70,NNW,343,14.0,33.0,55,0.00,,,0.00,weatherlink.com 1.10,2014-01-25 17:11:00,
2014-01-25 11:26:00,22.3,8.0,29.70,NW,315,17.0,31.0,55,0.00,,,0.00,weatherlink.com 1.10,2014-01-25 17:26:00,
2014-01-25 11:41:00,21.6,8.0,29.71,NW,310,23.0,31.0,55,0.00,,,0.00,weatherlink.com 1.10,2014-01-25 17:41:00,
2014-01-25 11:56:00,21.7,8.0,29.72,North,354,18.0,31.0,55,0.00,,,0.00,weatherlink.com 1.10,2014-01-25 17:56:00,
2014-01-25 12:11:00,21.7,8.0,29.72,NNW,341,13.0,30.0,55,0.00,,,0.00,weatherlink.com 1.10,2014-01-25 18:11:00,
2014-01-25 12:26:00,21.0,5.0,29.73,NNW,334,16.0,30.0,50,0.00,,,0.00,weatherlink.com 1.10,2014-01-25 18:26:00,
2014-01-25 12:41:00,20.6,4.0,29.74,NW,326,29.0,29.0,49,0.00,,,0.00,weatherlink.com 1.10,2014-01-25 18:41:00,
2014-01-25 12:56:00,20.0,4.0,29.74,NW,310,15.0,28.0,49,0.00,,,0.00,weatherlink.com 1.10,2014-01-25 18:56:00,
2014-01-25 13:11:00,20.1,4.0,29.75,NNW,331,13.0,27.0,49,0.00,,,0.00,weatherlink.com 1.10,2014-01-25 19:11:00,
2014-01-25 13:26:00,19.6,4.0,29.76,NW,320,14.0,28.0,50,0.00,,,0.00,weatherlink.com 1.10,2014-01-25 19:26:00,
2014-01-25 13:41:00,19.6,4.0,29.77,NW,304,17.0,30.0,50,0.00,,,0.00,weatherlink.com 1.10,2014-01-25 19:41:00,
2014-01-25 13:56:00,19.2,4.0,29.77,NNW,330,13.0,26.0,51,0.00,,,0.00,weatherlink.com 1.10,2014-01-25 19:56:00,
2014-01-25 14:11:00,19.8,4.0,29.78,NW,310,11.0,21.0,51,0.00,,,0.00,weatherlink.com 1.10,2014-01-25 20:11:00,
2014-01-25 14:26:00,19.3,3.0,29.79,NW,310,16.0,27.0,49,0.00,,,0.00,weatherlink.com 1.10,2014-01-25 20:26:00,
2014-01-25 14:41:00,18.8,2.0,29.79,WNW,297,11.0,25.0,47,0.00,,,0.00,weatherlink.com 1.10,2014-01-25 20:41:00,
2014-01-25 14:56:00,18.4,1.0,29.80,NNW,334,13.0,23.0,46,0.00,,,0.00,weatherlink.com 1.10,2014-01-25 20:56:00,
2014-01-25 15:11:00,17.7,0.0,29.81,WNW,293,14.0,26.0,45,0.00,,,0.00,weatherlink.com 1.10,2014-01-25 21:11:00,
2014-01-25 15:27:00,17.0,0.0,29.83,NW,320,17.0,29.0,47,0.00,,,0.00,weatherlink.com 1.10,2014-01-25 21:27:00,
2014-01-25 15:42:00,16.5,-2.0,29.84,NW,305,18.0,22.0,45,0.00,,,0.00,weatherlink.com 1.10,2014-01-25 21:42:00,
2014-01-25 15:57:00,16.4,-1.0,29.85,NNW,328,11.0,24.0,47,0.00,,,0.00,weatherlink.com 1.10,2014-01-25 21:57:00,
2014-01-25 16:12:00,16.3,0.0,29.85,NW,310,9.0,22.0,49,0.00,,,0.00,weatherlink.com 1.10,2014-01-25 22:12:00,
2014-01-25 16:27:00,15.7,-1.0,29.87,NW,310,14.0,24.0,48,0.00,,,0.00,weatherlink.com 1.10,2014-01-25 22:27:00,
2014-01-25 16:42:00,15.1,-1.0,29.88,WNW,291,10.0,21.0,49,0.00,,,0.00,weatherlink.com 1.10,2014-01-25 22:42:00,
2014-01-25 16:57:00,14.4,-2.0,29.88,NW,315,12.0,18.0,49,0.00,,,0.00,weatherlink.com 1.10,2014-01-25 22:57:00,
2014-01-25 17:12:00,13.7,-1.0,29.90,WNW,290,7.0,22.0,53,0.00,,,0.00,weatherlink.com 1.10,2014-01-25 23:12:00,
2014-01-25 17:27:00,13.2,-1.0,29.91,NW,306,16.0,21.0,54,0.00,,,0.00,weatherlink.com 1.10,2014-01-25 23:27:00,
2014-01-25 17:42:00,12.8,-1.0,29.91,NW,324,7.0,20.0,54,0.00,,,0.00,weatherlink.com 1.10,2014-01-25 23:42:00,
2014-01-25 17:57:00,12.5,-1.0,29.92,NW,310,11.0,14.0,55,0.00,,,0.00,weatherlink.com 1.10,2014-01-25 23:57:00,
2014-01-25 18:12:00,12.2,-1.0,29.93,West,281,7.0,12.0,55,0.00,,,0.00,weatherlink.com 1.10,2014-01-26 00:12:00,
2014-01-25 18:27:00,11.8,-1.0,29.93,NW,320,15.0,22.0,58,0.00,,,0.00,weatherlink.com 1.10,2014-01-26 00:27:00,
2014-01-25 18:42:00,11.4,-1.0,29.94,WNW,302,10.0,15.0,58,0.00,,,0.00,weatherlink.com 1.10,2014-01-26 00:42:00,
2014-01-25 18:58:00,11.2,-1.0,29.95,WNW,289,11.0,14.0,58,0.00,,,0.00,weatherlink.com 1.10,2014-01-26 00:58:00,
2014-01-25 19:13:00,11.2,-1.0,29.95,WNW,294,15.0,18.0,59,0.00,,,0.00,weatherlink.com 1.10,2014-01-26 01:13:00,
2014-01-25 19:28:00,11.0,-1.0,29.95,NW,310,7.0,17.0,60,0.00,,,0.00,weatherlink.com 1.10,2014-01-26 01:28:00,
2014-01-25 19:43:00,10.7,0.0,29.96,West,269,11.0,16.0,62,0.00,,,0.00,weatherlink.com 1.10,2014-01-26 01:43:00,
2014-01-25 19:58:00,10.5,0.0,29.96,WNW,298,11.0,16.0,63,0.00,,,0.00,weatherlink.com 1.10,2014-01-26 01:58:00,
2014-01-25 20:13:00,10.0,0.0,29.97,WNW,295,8.0,16.0,65,0.00,,,0.00,weatherlink.com 1.10,2014-01-26 02:13:00,
2014-01-25 20:28:00,9.6,0.0,29.96,NNW,342,7.0,15.0,66,0.00,,,0.00,weatherlink.com 1.10,2014-01-26 02:28:00,
2014-01-25 20:43:00,9.2,0.0,29.97,West,279,6.0,16.0,67,0.00,,,0.00,weatherlink.com 1.10,2014-01-26 02:43:00,
2014-01-25 20:58:00,8.9,0.0,29.98,WNW,293,7.0,11.0,67,0.00,,,0.00,weatherlink.com 1.10,2014-01-26 02:58:00,
2014-01-25 21:13:00,8.5,0.0,29.97,West,281,7.0,10.0,68,0.00,,,0.00,weatherlink.com 1.10,2014-01-26 03:13:00,
2014-01-25 21:28:00,8.2,0.0,29.97,West,270,7.0,9.0,68,0.00,,,0.00,weatherlink.com 1.10,2014-01-26 03:28:00,
2014-01-25 21:43:00,8.0,0.0,29.96,WNW,297,6.0,8.0,69,0.00,,,0.00,weatherlink.com 1.10,2014-01-26 03:43:00,
2014-01-25 21:58:00,7.8,0.0,29.97,West,280,5.0,8.0,69,0.00,,,0.00,weatherlink.com 1.10,2014-01-26 03:58:00,
2014-01-25 22:14:00,7.4,-1.0,29.97,West,272,4.0,6.0,70,0.00,,,0.00,weatherlink.com 1.10,2014-01-26 04:14:00,
2014-01-25 22:29:00,7.2,-1.0,29.97,West,274,3.0,6.0,70,0.00,,,0.00,weatherlink.com 1.10,2014-01-26 04:29:00,
2014-01-25 22:44:00,6.8,-1.0,29.96,West,272,4.0,6.0,70,0.00,,,0.00,weatherlink.com 1.10,2014-01-26 04:44:00,
2014-01-25 22:59:00,6.6,-1.0,29.95,West,272,1.0,3.0,71,0.00,,,0.00,weatherlink.com 1.10,2014-01-26 04:59:00,
2014-01-25 23:14:00,6.6,-1.0,29.95,West,274,1.0,5.0,72,0.00,,,0.00,weatherlink.com 1.10,2014-01-26 05:14:00,
2014-01-25 23:29:00,6.4,-1.0,29.94,West,272,1.0,4.0,72,0.00,,,0.00,weatherlink.com 1.10,2014-01-26 05:29:00,
2014-01-25 23:44:00,6.5,0.0,29.95,West,272,0.0,5.0,73,0.00,,,0.00,weatherlink.com 1.10,2014-01-26 05:44:00,
2014-01-25 23:59:00,6.6,0.0,29.95,West,272,4.0,4.0,73,0.00,,,0.00,weatherlink.com 1.10,2014-01-26 05:59:00,